NKS3428 KSAV-KFLL

Flight info

Callsign NKS3428
Flight time 1h 11m
Altitude 37000
Route GIPPL WOPNR Q93 PRMUS CUUDA3
Aircraft A320/M-SDE3FGHIRWY/LB1

Departure

Time 2026-05-03 23:50
Airport Savannah Hilton Head International Airport (KSAV)

Arrival

Time 2026-05-04 01:01
Airport Fort Lauderdale Hollywood International Airport (KFLL)
Time Latitude Longitude Altitude Speed Heading
2026-05-03 23:23 32.13600 -81.20670 36 ft 0 kts 175°
2026-05-03 23:42 32.13601 -81.20670 36 ft 1 kts 175°
2026-05-03 23:42 32.13624 -81.20672 36 ft 3 kts 176°
2026-05-03 23:42 32.13650 -81.20675 35 ft 4 kts 166°
2026-05-03 23:42 32.13676 -81.20685 34 ft 4 kts 152°
2026-05-03 23:43 32.13684 -81.20690 34 ft 0 kts 148°
2026-05-03 23:44 32.13678 -81.20678 32 ft 9 kts 112°
2026-05-03 23:45 32.13675 -81.20640 35 ft 0 kts 82°
2026-05-03 23:45 32.13675 -81.20628 35 ft 9 kts 88°
2026-05-03 23:45 32.13670 -81.20449 41 ft 20 kts 95°
2026-05-03 23:46 32.13623 -81.20336 48 ft 15 kts 162°
2026-05-03 23:46 32.13515 -81.20331 47 ft 17 kts 179°
2026-05-03 23:46 32.13337 -81.20328 47 ft 32 kts 179°
2026-05-03 23:46 32.13105 -81.20330 46 ft 34 kts 180°
2026-05-03 23:47 32.13038 -81.20372 45 ft 9 kts 257°
2026-05-03 23:47 32.13036 -81.20579 43 ft 34 kts 270°
2026-05-03 23:47 32.13043 -81.20872 38 ft 37 kts 269°
2026-05-03 23:47 32.13037 -81.21186 33 ft 40 kts 270°
2026-05-03 23:48 32.13044 -81.21515 31 ft 41 kts 271°
2026-05-03 23:48 32.13050 -81.21798 27 ft 19 kts 267°
2026-05-03 23:48 32.12956 -81.21863 29 ft 19 kts 184°
2026-05-03 23:48 32.12875 -81.21811 27 ft 8 kts 100°
2026-05-03 23:49 32.12875 -81.21718 29 ft 29 kts 89°
2026-05-03 23:49 32.12869 -81.21174 38 ft 100 kts 90°
2026-05-03 23:49 32.12860 -81.20131 45 ft 152 kts 91°
2026-05-03 23:49 32.12844 -81.18799 462 ft 163 kts 94°
2026-05-03 23:50 32.12829 -81.17537 1299 ft 152 kts 95°
2026-05-03 23:50 32.12824 -81.16697 1513 ft 166 kts 95°
2026-05-03 23:50 32.12252 -81.15055 1859 ft 190 kts 134°
2026-05-03 23:50 32.11213 -81.13954 2206 ft 210 kts 141°
2026-05-03 23:51 32.10014 -81.12865 2596 ft 233 kts 148°
2026-05-03 23:51 32.08428 -81.12179 3118 ft 254 kts 174°
2026-05-03 23:51 32.06624 -81.12194 3968 ft 263 kts 182°
2026-05-03 23:51 32.04782 -81.12296 4916 ft 266 kts 183°
2026-05-03 23:52 32.02921 -81.12414 5918 ft 267 kts 183°
2026-05-03 23:52 32.01687 -81.12494 6586 ft 268 kts 184°
2026-05-03 23:52 31.99203 -81.12657 7799 ft 273 kts 185°
2026-05-03 23:52 31.97279 -81.12782 8614 ft 280 kts 186°
2026-05-03 23:53 31.95977 -81.12865 9116 ft 285 kts 186°
2026-05-03 23:53 31.93955 -81.12995 9842 ft 293 kts 186°
2026-05-03 23:53 31.91882 -81.13130 10413 ft 308 kts 187°
2026-05-03 23:53 31.89658 -81.13281 10770 ft 328 kts 187°
2026-05-03 23:54 31.87373 -81.13431 11440 ft 334 kts 187°
2026-05-03 23:54 31.85030 -81.13578 12218 ft 337 kts 187°
2026-05-03 23:54 31.82675 -81.13722 12993 ft 340 kts 188°
2026-05-03 23:54 31.80292 -81.13869 13744 ft 342 kts 188°
2026-05-03 23:55 31.77931 -81.14015 14476 ft 345 kts 188°
2026-05-03 23:55 31.75525 -81.14164 15190 ft 347 kts 188°
2026-05-03 23:55 31.73102 -81.14317 15889 ft 349 kts 188°
2026-05-03 23:55 31.70656 -81.14472 16564 ft 352 kts 188°
2026-05-03 23:56 31.68205 -81.14627 17231 ft 354 kts 188°
2026-05-03 23:56 31.65767 -81.14779 17885 ft 356 kts 188°
2026-05-03 23:56 31.63282 -81.14931 18552 ft 358 kts 188°
2026-05-03 23:56 31.60787 -81.15085 19203 ft 361 kts 189°
2026-05-03 23:57 31.58266 -81.15242 19839 ft 363 kts 189°
2026-05-03 23:57 31.55727 -81.15399 20466 ft 366 kts 189°
2026-05-03 23:57 31.53170 -81.15557 21068 ft 369 kts 189°
2026-05-03 23:57 31.50590 -81.15718 21657 ft 371 kts 189°
2026-05-03 23:58 31.47994 -81.15883 22223 ft 374 kts 190°
2026-05-03 23:58 31.45386 -81.16051 22796 ft 376 kts 190°
2026-05-03 23:58 31.42792 -81.16216 23341 ft 379 kts 190°
2026-05-03 23:58 31.40144 -81.16382 23879 ft 382 kts 190°
2026-05-03 23:59 31.37451 -81.16413 24400 ft 390 kts 183°
2026-05-03 23:59 31.34751 -81.16090 24895 ft 395 kts 182°
2026-05-03 23:59 31.32006 -81.15751 25389 ft 397 kts 182°
2026-05-03 23:59 31.29245 -81.15415 25867 ft 399 kts 182°
2026-05-04 00:00 31.26470 -81.15084 26336 ft 401 kts 183°
2026-05-04 00:00 31.23712 -81.14755 26775 ft 403 kts 183°
2026-05-04 00:00 31.20911 -81.14419 27213 ft 405 kts 183°
2026-05-04 00:00 31.18101 -81.14079 27669 ft 406 kts 182°
2026-05-04 00:01 31.15290 -81.13733 28186 ft 405 kts 182°
2026-05-04 00:01 31.12476 -81.13388 28621 ft 406 kts 182°
2026-05-04 00:01 31.09663 -81.13045 29051 ft 407 kts 182°
2026-05-04 00:01 31.06830 -81.12701 29450 ft 409 kts 183°
2026-05-04 00:02 31.04026 -81.12364 29825 ft 410 kts 183°
2026-05-04 00:02 31.01174 -81.12025 30210 ft 412 kts 183°
2026-05-04 00:02 30.98302 -81.11685 30575 ft 414 kts 183°
2026-05-04 00:02 30.95420 -81.11340 30933 ft 416 kts 183°
2026-05-04 00:03 30.92561 -81.10996 31280 ft 418 kts 184°
2026-05-04 00:03 30.89657 -81.10647 31621 ft 419 kts 184°
2026-05-04 00:03 30.86745 -81.10295 32015 ft 419 kts 184°
2026-05-04 00:03 30.83846 -81.09941 32499 ft 417 kts 184°
2026-05-04 00:04 30.80967 -81.09590 32975 ft 415 kts 184°
2026-05-04 00:04 30.78136 -81.09249 33450 ft 413 kts 184°
2026-05-04 00:04 30.75275 -81.08908 33915 ft 411 kts 185°
2026-05-04 00:04 30.72434 -81.08569 34358 ft 409 kts 185°
2026-05-04 00:05 30.69604 -81.08232 34790 ft 408 kts 185°
2026-05-04 00:05 30.66789 -81.07896 35233 ft 405 kts 186°
2026-05-04 00:05 30.64016 -81.07565 35650 ft 403 kts 186°
2026-05-04 00:05 30.61259 -81.07477 36018 ft 390 kts 194°
2026-05-04 00:06 30.55871 -81.07798 36136 ft 383 kts 195°
2026-05-04 00:06 30.50599 -81.08126 36132 ft 380 kts 195°
2026-05-04 00:07 30.45310 -81.08454 36137 ft 380 kts 195°
2026-05-04 00:07 30.40025 -81.08775 36139 ft 380 kts 195°
2026-05-04 00:08 30.34768 -81.09084 36141 ft 380 kts 195°
2026-05-04 00:08 30.29471 -81.09396 36143 ft 380 kts 194°
2026-05-04 00:09 30.24213 -81.09710 36146 ft 380 kts 195°
2026-05-04 00:09 30.18925 -81.10029 36145 ft 380 kts 195°
2026-05-04 00:10 30.13628 -81.10347 36146 ft 380 kts 195°
2026-05-04 00:10 30.08369 -81.10663 36151 ft 380 kts 195°
2026-05-04 00:11 30.03105 -81.10977 36156 ft 380 kts 195°
2026-05-04 00:11 29.97816 -81.11294 36160 ft 379 kts 195°
2026-05-04 00:12 29.92566 -81.11609 36159 ft 380 kts 195°
2026-05-04 00:12 29.87278 -81.11917 36155 ft 379 kts 195°
2026-05-04 00:13 29.81928 -81.11837 36154 ft 399 kts 183°
2026-05-04 00:13 29.79194 -81.10966 36155 ft 418 kts 172°
2026-05-04 00:13 29.76522 -81.09660 36152 ft 422 kts 171°
2026-05-04 00:14 29.71112 -81.06994 36147 ft 422 kts 171°
2026-05-04 00:14 29.65736 -81.04363 36138 ft 422 kts 171°
2026-05-04 00:15 29.60323 -81.01713 36141 ft 423 kts 171°
2026-05-04 00:15 29.54893 -80.99055 36128 ft 423 kts 171°
2026-05-04 00:16 29.49503 -80.96420 36135 ft 422 kts 171°
2026-05-04 00:16 29.44103 -80.93789 36136 ft 423 kts 171°
2026-05-04 00:17 29.38676 -80.91146 36130 ft 423 kts 171°
2026-05-04 00:17 29.33248 -80.88504 36125 ft 423 kts 171°
2026-05-04 00:18 29.27862 -80.85883 36131 ft 423 kts 171°
2026-05-04 00:18 29.22436 -80.83249 36127 ft 423 kts 171°
2026-05-04 00:19 29.17008 -80.80623 36118 ft 423 kts 171°
2026-05-04 00:19 29.11609 -80.78020 36115 ft 423 kts 171°
2026-05-04 00:20 29.06167 -80.75380 36124 ft 424 kts 171°
2026-05-04 00:20 29.00752 -80.72758 36117 ft 424 kts 171°
2026-05-04 00:21 28.95309 -80.70141 36111 ft 423 kts 172°
2026-05-04 00:21 28.89871 -80.67682 36115 ft 421 kts 173°
2026-05-04 00:22 28.84426 -80.65292 36102 ft 421 kts 173°
2026-05-04 00:22 28.78944 -80.62874 36097 ft 422 kts 172°
2026-05-04 00:23 28.73469 -80.60438 36090 ft 422 kts 172°
2026-05-04 00:23 28.68025 -80.58009 36084 ft 422 kts 172°
2026-05-04 00:24 28.62540 -80.55551 36081 ft 422 kts 172°
2026-05-04 00:24 28.57095 -80.53111 36073 ft 422 kts 172°
2026-05-04 00:25 28.51629 -80.50678 36064 ft 422 kts 172°
2026-05-04 00:25 28.46140 -80.48246 36063 ft 423 kts 172°
2026-05-04 00:26 28.40669 -80.45820 36061 ft 424 kts 172°
2026-05-04 00:26 28.35177 -80.43382 36057 ft 424 kts 172°
2026-05-04 00:27 28.29668 -80.40950 36051 ft 424 kts 172°
2026-05-04 00:27 28.24186 -80.38527 36046 ft 424 kts 172°
2026-05-04 00:28 28.18678 -80.36099 36044 ft 424 kts 172°
2026-05-04 00:28 28.13152 -80.33680 36054 ft 425 kts 172°
2026-05-04 00:29 28.07650 -80.31286 36051 ft 423 kts 173°
2026-05-04 00:29 28.02129 -80.29089 36057 ft 421 kts 175°
2026-05-04 00:30 27.96557 -80.26981 36046 ft 423 kts 175°
2026-05-04 00:30 27.90959 -80.24839 35882 ft 424 kts 174°
2026-05-04 00:31 27.88130 -80.23746 34879 ft 434 kts 174°
2026-05-04 00:31 27.85283 -80.22642 34125 ft 437 kts 174°
2026-05-04 00:31 27.82403 -80.21511 33537 ft 436 kts 173°
2026-05-04 00:31 27.79542 -80.20378 33019 ft 432 kts 173°
2026-05-04 00:32 27.76710 -80.19255 32516 ft 428 kts 172°
2026-05-04 00:32 27.73949 -80.18168 32022 ft 424 kts 172°
2026-05-04 00:32 27.71170 -80.17084 31508 ft 420 kts 172°
2026-05-04 00:32 27.68418 -80.16014 31002 ft 415 kts 171°
2026-05-04 00:33 27.65691 -80.14958 30500 ft 411 kts 171°
2026-05-04 00:33 27.60324 -80.12876 29522 ft 403 kts 169°
2026-05-04 00:33 27.57720 -80.11828 28981 ft 402 kts 169°
2026-05-04 00:34 27.55088 -80.10739 28493 ft 399 kts 168°
2026-05-04 00:34 27.52504 -80.09654 28133 ft 393 kts 168°
2026-05-04 00:34 27.49948 -80.08582 27757 ft 389 kts 168°
2026-05-04 00:34 27.47420 -80.07528 27375 ft 385 kts 168°
2026-05-04 00:35 27.44944 -80.06502 27011 ft 382 kts 168°
2026-05-04 00:35 27.42449 -80.05473 26623 ft 380 kts 168°
2026-05-04 00:35 27.40225 -80.04559 26288 ft 377 kts 168°
2026-05-04 00:35 27.37754 -80.03569 25914 ft 373 kts 170°
2026-05-04 00:36 27.35322 -80.02724 25531 ft 367 kts 172°
2026-05-04 00:36 27.32863 -80.01968 25157 ft 363 kts 174°
2026-05-04 00:36 27.30420 -80.01263 24781 ft 359 kts 174°
2026-05-04 00:36 27.28000 -80.00573 24398 ft 356 kts 174°
2026-05-04 00:37 27.25638 -79.99891 24028 ft 353 kts 173°
2026-05-04 00:37 27.23266 -79.99130 23602 ft 355 kts 171°
2026-05-04 00:37 27.20906 -79.98297 23172 ft 355 kts 170°
2026-05-04 00:37 27.18565 -79.97430 22751 ft 354 kts 169°
2026-05-04 00:38 27.16226 -79.96551 22326 ft 352 kts 169°
2026-05-04 00:38 27.13897 -79.95683 21903 ft 350 kts 169°
2026-05-04 00:38 27.11618 -79.94845 21493 ft 348 kts 169°
2026-05-04 00:38 27.09312 -79.94004 21075 ft 346 kts 169°
2026-05-04 00:39 27.07016 -79.93176 20664 ft 344 kts 169°
2026-05-04 00:39 27.04746 -79.92327 20249 ft 343 kts 168°
2026-05-04 00:39 27.02524 -79.91442 19842 ft 341 kts 167°
2026-05-04 00:39 27.00290 -79.90526 19436 ft 340 kts 167°
2026-05-04 00:40 26.99539 -79.90217 19298 ft 339 kts 167°
2026-05-04 00:40 26.96614 -79.89015 18761 ft 336 kts 167°
2026-05-04 00:40 26.94414 -79.88114 18358 ft 334 kts 167°
2026-05-04 00:40 26.92228 -79.87228 17960 ft 332 kts 167°
2026-05-04 00:41 26.90055 -79.86348 17561 ft 331 kts 167°
2026-05-04 00:41 26.87917 -79.85482 17171 ft 329 kts 166°
2026-05-04 00:41 26.85765 -79.84614 16779 ft 327 kts 167°
2026-05-04 00:41 26.83625 -79.83753 16387 ft 325 kts 166°
2026-05-04 00:42 26.81497 -79.82901 15998 ft 323 kts 166°
2026-05-04 00:42 26.79376 -79.82054 15612 ft 322 kts 166°
2026-05-04 00:42 26.77267 -79.81207 15219 ft 321 kts 166°
2026-05-04 00:42 26.75193 -79.80370 14831 ft 320 kts 166°
2026-05-04 00:43 26.73097 -79.79544 14444 ft 317 kts 169°
2026-05-04 00:43 26.70965 -79.79081 14062 ft 309 kts 181°
2026-05-04 00:43 26.68839 -79.79119 13697 ft 302 kts 192°
2026-05-04 00:43 26.66807 -79.79620 13334 ft 295 kts 202°
2026-05-04 00:44 26.64910 -79.80391 12983 ft 292 kts 204°
2026-05-04 00:44 26.63001 -79.81161 12730 ft 285 kts 204°
2026-05-04 00:44 26.61201 -79.81886 12500 ft 269 kts 204°
2026-05-04 00:44 26.59454 -79.82589 12025 ft 264 kts 204°
2026-05-04 00:45 26.57731 -79.83286 11648 ft 263 kts 204°
2026-05-04 00:45 26.56009 -79.83987 11321 ft 265 kts 204°
2026-05-04 00:45 26.54282 -79.84722 10998 ft 264 kts 205°
2026-05-04 00:45 26.52587 -79.85507 10681 ft 263 kts 206°
2026-05-04 00:46 26.50921 -79.86302 10373 ft 262 kts 206°
2026-05-04 00:46 26.49239 -79.87110 10063 ft 262 kts 206°
2026-05-04 00:46 26.47565 -79.87909 9747 ft 261 kts 205°
2026-05-04 00:46 26.45890 -79.88701 9433 ft 261 kts 205°
2026-05-04 00:47 26.44214 -79.89492 9118 ft 260 kts 205°
2026-05-04 00:47 26.42567 -79.90269 8812 ft 260 kts 205°
2026-05-04 00:47 26.40905 -79.91054 8501 ft 259 kts 205°
2026-05-04 00:47 26.39246 -79.91841 8182 ft 259 kts 204°
2026-05-04 00:48 26.37640 -79.92715 7915 ft 257 kts 212°
2026-05-04 00:48 26.36081 -79.93719 7699 ft 257 kts 212°
2026-05-04 00:48 26.34528 -79.94715 7470 ft 260 kts 211°
2026-05-04 00:48 26.32961 -79.95718 7249 ft 264 kts 211°
2026-05-04 00:49 26.31365 -79.96741 7074 ft 264 kts 211°
2026-05-04 00:49 26.29768 -79.97766 7017 ft 264 kts 211°
2026-05-04 00:49 26.28169 -79.98794 7017 ft 265 kts 211°
2026-05-04 00:49 26.26568 -79.99824 7017 ft 265 kts 211°
2026-05-04 00:50 26.24966 -80.00854 7017 ft 265 kts 211°
2026-05-04 00:50 26.23364 -80.01882 7020 ft 265 kts 211°
2026-05-04 00:50 26.21785 -80.02897 7018 ft 265 kts 211°
2026-05-04 00:50 26.20189 -80.03924 7018 ft 265 kts 213°
2026-05-04 00:51 26.18749 -80.05199 7017 ft 263 kts 228°
2026-05-04 00:51 26.17677 -80.06841 6953 ft 263 kts 243°
2026-05-04 00:51 26.16994 -80.08771 6831 ft 271 kts 252°
2026-05-04 00:51 26.16399 -80.10774 6701 ft 272 kts 252°
2026-05-04 00:52 26.15797 -80.12778 6577 ft 272 kts 251°
2026-05-04 00:52 26.15225 -80.14771 6333 ft 268 kts 257°
2026-05-04 00:52 26.15022 -80.16802 6006 ft 267 kts 270°
2026-05-04 00:52 26.15033 -80.18873 5659 ft 266 kts 270°
2026-05-04 00:53 26.15044 -80.20942 5311 ft 267 kts 270°
2026-05-04 00:53 26.15053 -80.23004 4963 ft 266 kts 270°
2026-05-04 00:53 26.15062 -80.25057 4614 ft 264 kts 270°
2026-05-04 00:53 26.15080 -80.27080 4220 ft 265 kts 270°
2026-05-04 00:54 26.15107 -80.29084 3966 ft 251 kts 270°
2026-05-04 00:54 26.15131 -80.30974 3721 ft 239 kts 271°
2026-05-04 00:54 26.15151 -80.32813 3465 ft 236 kts 271°
2026-05-04 00:54 26.15168 -80.34628 3335 ft 234 kts 271°
2026-05-04 00:55 26.15181 -80.36424 3209 ft 234 kts 269°
2026-05-04 00:55 26.14795 -80.38166 3104 ft 234 kts 239°
2026-05-04 00:55 26.13634 -80.39413 3012 ft 234 kts 206°
2026-05-04 00:55 26.12053 -80.39802 3018 ft 235 kts 181°
2026-05-04 00:56 26.10439 -80.39795 3010 ft 224 kts 178°
2026-05-04 00:56 26.08940 -80.39620 3012 ft 211 kts 162°
2026-05-04 00:56 26.07701 -80.38854 3018 ft 206 kts 136°
2026-05-04 00:56 26.06915 -80.37555 3050 ft 204 kts 109°
2026-05-04 00:57 26.06720 -80.36003 3020 ft 203 kts 90°
2026-05-04 00:57 26.06695 -80.34465 3010 ft 194 kts 90°
2026-05-04 00:57 26.06679 -80.33006 2929 ft 185 kts 90°
2026-05-04 00:57 26.06670 -80.31585 2752 ft 182 kts 90°
2026-05-04 00:58 26.06663 -80.30181 2529 ft 180 kts 89°
2026-05-04 00:58 26.06656 -80.28808 2297 ft 179 kts 89°
2026-05-04 00:58 26.06649 -80.27427 2060 ft 178 kts 89°
2026-05-04 00:58 26.06643 -80.26056 1825 ft 176 kts 89°
2026-05-04 00:59 26.06635 -80.24701 1607 ft 167 kts 88°
2026-05-04 00:59 26.06628 -80.23504 1386 ft 148 kts 88°
2026-05-04 00:59 26.06623 -80.22394 1194 ft 139 kts 87°
2026-05-04 00:59 26.06617 -80.21319 1010 ft 139 kts 89°
2026-05-04 01:00 26.06611 -80.20249 825 ft 139 kts 88°
2026-05-04 01:00 26.06606 -80.19176 641 ft 138 kts 88°
2026-05-04 01:00 26.06602 -80.18109 464 ft 138 kts 89°
2026-05-04 01:00 26.06604 -80.17056 306 ft 138 kts 89°
2026-05-04 01:01 26.06594 -80.15978 81 ft 137 kts 89°
2026-05-04 01:01 26.06584 -80.14990 21 ft 104 kts 91°
2026-05-04 01:01 26.06601 -80.14682 31 ft 9 kts 37°
2026-05-04 01:01 26.06657 -80.14682 31 ft 8 kts 346°
2026-05-04 01:02 26.06677 -80.14756 26 ft 14 kts 269°
2026-05-04 01:02 26.06694 -80.14893 19 ft 20 kts 292°
2026-05-04 01:02 26.06753 -80.14908 16 ft 8 kts 50°
2026-05-04 01:02 26.06767 -80.14831 15 ft 19 kts 92°
2026-05-04 01:03 26.06764 -80.14652 15 ft 25 kts 90°
2026-05-04 01:03 26.06777 -80.14460 16 ft 11 kts 72°
2026-05-04 01:03 26.06853 -80.14432 16 ft 13 kts
2026-05-04 01:03 26.06880 -80.14432 16 ft 0 kts
2026-05-04 01:04 26.06883 -80.14432 16 ft 0 kts